Weather reports worldwide

Advertisment
Stornoway, United Kingdom (3026): temperature & dewpoint: 19.04.2019 13:00:00 - 25.04.2019 13:00:00 (BST)Stornoway, United Kingdom (3026): temperature -20cm & temperature -100cm: 19.04.2019 13:00:00 - 25.04.2019 13:00:00 (BST)Stornoway, United Kingdom (3026): wind speed & gusts: 19.04.2019 13:00:00 - 25.04.2019 13:00:00 (BST)Stornoway, United Kingdom (3026): wind direction: 19.04.2019 13:00:00 - 25.04.2019 13:00:00 (BST)Stornoway, United Kingdom (3026): reduced air pressure: 19.04.2019 13:00:00 - 25.04.2019 13:00:00 (BST)Stornoway, United Kingdom (3026): visibility: 19.04.2019 13:00:00 - 25.04.2019 13:00:00 (BST)Stornoway, United Kingdom (3026): sunshine duration: 19.04.2019 13:00:00 - 25.04.2019 13:00:00 (BST)Stornoway, United Kingdom (3026): precipitation: 19.04.2019 13:00:00 - 25.04.2019 13:00:00 (BST)
Date & Time tt [°C] td [°C] tt -20cm [°C] tt -100cm [°C] ff [km/h] ff [kn] fx [km/h] fx [kn] dd ppp [hPa] vv [km] sd [min] rr [mm]
25.04.2019 13:00:00 12,6 8,2 - - 16 9 - - SSE 996,7 75 60 0,0
25.04.2019 12:00:00 12,3 9,4 - - 13 7 - - SSE 996,1 65 48 0,0
25.04.2019 11:00:00 10,6 9,8 - - 13 7 - - S 995,7 18 6 0,2
25.04.2019 10:00:00 9,4 8,9 10,0 8,2 13 7 - - S 995,2 7 0 0,4
25.04.2019 09:00:00 9,3 8,7 - - 15 8 - - S 994,7 4,6 0 1,4
25.04.2019 08:00:00 9,4 8,2 - - 15 8 - - SSE 993,8 8 0 0,0
25.04.2019 07:00:00 9,4 8,0 - - 15 8 - - ESE 993,1 12 0 0,0
25.04.2019 06:00:00 9,3 7,9 - - 22 12 - - ESE 992,9 13 0 0,0
25.04.2019 05:00:00 8,6 7,6 - - 18 10 - - E 992,7 10 0 0,0
25.04.2019 04:00:00 8,9 7,4 - - 24 13 - - E 992,7 14 0 0,0
25.04.2019 03:00:00 8,7 7,3 - - 16 9 - - ENE 993,2 15 0 0,0
25.04.2019 02:00:00 8,7 7,2 - - 26 14 - - E 993,5 14 0 0,0
25.04.2019 01:00:00 8,7 7,5 - - 15 8 - - NNE 993,7 8 - 0,0
25.04.2019 00:00:00 9,0 7,6 - - 29 16 - - E 993,6 10 0 0,0
24.04.2019 23:00:00 9,1 7,4 - - 29 16 - - E 994,4 12 0 0,0
24.04.2019 22:00:00 9,3 7,7 - - 37 20 54 29 E 994,9 11 0 0,0
24.04.2019 21:00:00 9,6 7,7 - - 37 20 55 30 E 994,8 11 0 0,0
24.04.2019 20:00:00 10,5 7,9 - - 35 19 54 29 E 995,2 12 54 0,0
24.04.2019 19:00:00 11,3 8,2 - - 41 22 63 34 E 995,1 14 60 0,0
24.04.2019 18:00:00 12,6 8,2 - - 48 26 72 39 E 994,7 16 60 0,0
24.04.2019 17:00:00 12,7 7,9 - - 55 30 72 39 E 994,9 16 60 0,0
24.04.2019 16:00:00 13,1 8,3 - - 57 31 78 42 E 995,4 16 60 0,0
24.04.2019 15:00:00 13,4 8,2 - - 55 30 68 37 E 995,7 16 60 0,0
24.04.2019 14:00:00 14,4 8,2 - - 48 26 59 32 E 996,2 17 60 0,0
24.04.2019 13:00:00 15,0 8,1 - - 42 23 57 31 E 996,4 19 60 0,0
24.04.2019 12:00:00 14,1 7,9 - - 34 18 - - ESE 996,9 17 60 0,0
24.04.2019 11:00:00 13,7 7,6 - - 18 10 - - ESE 997,2 16 60 -
24.04.2019 10:00:00 13,3 7,5 - - 26 14 - - SE 997,2 20 60 0,0
24.04.2019 09:00:00 12,6 6,2 - - 26 14 - - ESE 997,3 27 60 0,0
24.04.2019 08:00:00 10,9 5,3 - - 29 16 - - SE 997,1 27 54 0,0
24.04.2019 07:00:00 9,6 5,2 - - 31 17 - - ESE 996,9 23 0 0,0
24.04.2019 06:00:00 9,5 5,3 - - 34 18 - - SE 996,5 22 0 0,0
24.04.2019 05:00:00 9,5 5,5 - - 31 17 - - ESE 996,4 20 0 0,0
24.04.2019 04:00:00 9,9 5,6 - - 29 16 - - ESE 996,7 22 0 0,0
24.04.2019 03:00:00 10,0 5,3 - - 29 16 - - ESE 997,0 26 0 0,0
24.04.2019 02:00:00 10,3 5,1 - - 34 18 - - ESE 997,1 29 0 0,0
24.04.2019 01:00:00 10,5 5,8 - - 31 17 - - SE 997,2 23 - 0,0
24.04.2019 00:00:00 10,0 6,7 - - 21 11 - - SE 997,8 17 0 0,0
23.04.2019 23:00:00 10,3 6,8 - - 29 16 - - ESE 997,9 18 0 0,0
23.04.2019 22:00:00 11,3 6,9 - - 34 18 46 25 ESE 997,9 17 0 0,0
23.04.2019 21:00:00 11,3 7,1 - - 31 17 - - ESE 998,1 19 0 0,0
23.04.2019 20:00:00 12,3 7,2 - - 29 16 - - ESE 998,1 22 0 0,0
23.04.2019 19:00:00 13,3 7,7 - - 24 13 - - ESE 997,9 30 0 0,0
23.04.2019 18:00:00 14,9 8,0 - - 28 15 - - ESE 997,7 29 12 0,0
23.04.2019 17:00:00 15,1 8,6 - - 31 17 - - ESE 998,1 29 36 0,0
23.04.2019 16:00:00 14,8 8,2 - - 29 16 - - ESE 998,4 30 24 0,0
23.04.2019 15:00:00 18,0 10,2 - - 11 6 - - NE 999,2 40 60 0,0
23.04.2019 14:00:00 17,1 8,8 - - 11 6 - - SE 999,4 30 60 0,0
23.04.2019 13:00:00 15,0 7,7 - - 13 7 - - SSE 999,8 27 60 0,0
23.04.2019 12:00:00 14,1 7,6 - - 15 8 - - SSE 1000,0 26 18 0,0
23.04.2019 11:00:00 13,7 6,0 - - 31 17 - - SE 999,7 30 0 0,0
23.04.2019 10:00:00 13,4 5,7 9,7 8,0 24 13 - - ESE 1000,1 35 0 0,0
23.04.2019 09:00:00 13,0 6,0 - - 21 11 - - ESE 1000,2 30 0 0,0
23.04.2019 08:00:00 11,8 6,8 - - 8 4 - - NNE 1000,5 25 0 0,0
23.04.2019 07:00:00 12,1 6,1 - - 8 4 - - ENE 1000,6 26 0 0,0
23.04.2019 06:00:00 12,0 5,6 - - 16 9 - - ESE 1000,7 27 0 0,0
23.04.2019 05:00:00 9,6 5,8 - - 4 2 - - S 1001,0 35 0 0,0
23.04.2019 04:00:00 11,5 5,7 - - 9 5 - - S 1001,6 40 0 0,0
23.04.2019 03:00:00 11,4 5,5 - - 11 6 - - SSE 1001,8 45 0 0,0
23.04.2019 02:00:00 11,4 6,7 - - 9 5 - - SSE 1002,3 45 0 0,0
23.04.2019 01:00:00 9,8 6,7 - - 8 4 - - E 1002,5 35 - 0,0
23.04.2019 00:00:00 8,5 5,7 - - 5 3 - - N 1002,6 35 0 0,0
22.04.2019 23:00:00 10,6 6,1 - - 4 2 - - S 1002,8 55 0 0,0
22.04.2019 22:00:00 11,1 5,6 - - 13 7 - - E 1002,7 55 0 0,0
22.04.2019 21:00:00 10,7 7,1 - - 5 3 - - NE 1002,7 40 0 0,0
22.04.2019 20:00:00 11,2 7,9 - - 11 6 - - NE 1002,7 35 60 0,0
22.04.2019 19:00:00 14,4 8,3 - - 11 6 - - E 1002,6 45 60 0,0
22.04.2019 18:00:00 16,9 6,9 - - 9 5 - - SSE 1002,2 50 36 0,0
22.04.2019 17:00:00 19,2 6,3 - - 15 8 - - S 1002,5 55 60 0,0
22.04.2019 16:00:00 19,5 6,7 - - 22 12 - - SSW 1002,9 45 60 0,0
22.04.2019 15:00:00 18,9 6,0 - - 22 12 - - SSW 1003,3 50 60 0,0
22.04.2019 14:00:00 17,5 6,0 - - 26 14 - - S 1003,6 60 60 0,0
22.04.2019 13:00:00 15,3 7,6 - - 24 13 - - S 1003,7 35 60 0,0
22.04.2019 12:00:00 14,6 7,5 - - 28 15 - - S 1003,6 30 60 0,0
22.04.2019 11:00:00 13,5 7,3 - - 22 12 - - S 1003,5 23 60 0,0
22.04.2019 10:00:00 12,9 7,3 9,4 7,9 29 16 - - S 1003,2 20 60 0,0
22.04.2019 09:00:00 12,1 7,6 - - 28 15 - - S 1003,2 19 60 0,0
22.04.2019 08:00:00 11,5 7,6 - - 22 12 - - S 1003,1 21 36 0,0
22.04.2019 07:00:00 11,0 8,0 - - 21 11 - - S 1003,1 18 6 0,0
22.04.2019 06:00:00 10,9 8,3 - - 16 9 - - S 1002,9 19 0 0,0
22.04.2019 05:00:00 11,6 8,6 - - 22 12 - - SSW 1003,1 23 0 0,0
22.04.2019 04:00:00 11,8 9,1 - - 22 12 - - S 1003,1 30 0 0,0
22.04.2019 03:00:00 10,9 8,7 - - 16 9 - - S 1003,6 27 0 0,0
22.04.2019 02:00:00 11,6 10,1 - - 29 16 - - SSW 1003,8 30 0 0,0
22.04.2019 01:00:00 11,1 9,9 - - 24 13 - - S 1004,3 26 - 0,0
22.04.2019 00:00:00 11,4 9,9 - - 26 14 - - S 1004,8 14 0 0,0
21.04.2019 23:00:00 10,9 10,0 - - 18 10 - - S 1005,3 15 0 0,0
21.04.2019 22:00:00 11,8 10,4 - - 29 16 - - SSW 1005,6 10 0 0,0
21.04.2019 21:00:00 11,3 10,2 - - 29 16 - - SSW 1005,9 9 0 0,0
21.04.2019 20:00:00 11,7 10,4 - - 31 17 50 27 SSW 1006,4 9 0 0,0
21.04.2019 19:00:00 11,9 10,6 - - 34 18 48 26 S 1007,2 14 0 0,0
21.04.2019 18:00:00 11,2 10,5 - - 35 19 48 26 S 1007,9 10 0 0,0
21.04.2019 17:00:00 10,8 10,4 - - 31 17 46 25 S 1008,7 9 0 0,2
21.04.2019 16:00:00 10,9 10,5 - - 37 20 50 27 S 1009,5 9 0 0,2
21.04.2019 15:00:00 10,7 10,5 - - 31 17 - - S 1010,3 5 0 0,2
21.04.2019 14:00:00 10,6 10,5 - - 28 15 48 26 S 1011,4 3,5 0 0,0
21.04.2019 13:00:00 10,5 10,3 - - 35 19 50 27 S 1012,0 8 0 0,2
21.04.2019 12:00:00 10,6 10,3 - - 34 18 - - S 1012,8 10 0 0,2
21.04.2019 11:00:00 10,4 10,2 - - 28 15 46 25 S 1013,8 8 0 0,0
21.04.2019 10:00:00 9,4 9,3 9,4 7,7 16 9 - - SSE 1014,7 12 0 0,4
21.04.2019 09:00:00 9,3 9,2 - - 22 12 - - SSE 1015,7 11 0 1,6
21.04.2019 08:00:00 8,9 8,9 - - 18 10 - - SSE 1016,7 4,7 0 0,0
21.04.2019 07:00:00 8,9 8,8 - - 9 5 - - SSE 1017,7 2,3 0 0,8
21.04.2019 06:00:00 8,8 8,6 - - 8 4 - - SSE 1018,7 3,5 0 0,8
21.04.2019 05:00:00 8,7 8,5 - - 4 2 - - SSE 1019,5 0,6 0 0,4
21.04.2019 04:00:00 8,8 8,5 - - 4 2 - - SSE 1020,6 1,5 0 1,2
21.04.2019 03:00:00 9,0 8,7 - - 2 1 - - S 1021,7 5 0 0,4
21.04.2019 02:00:00 9,1 8,7 - - 4 2 - - SSE 1022,7 10 0 0,2
21.04.2019 01:00:00 9,4 8,9 - - 4 2 - - S 1023,6 5 - 0,4
21.04.2019 00:00:00 9,3 8,6 - - 2 1 - - SSE 1024,4 12 0 0,4
20.04.2019 23:00:00 9,4 8,6 - - 9 5 - - S 1025,1 27 0 0,2
20.04.2019 22:00:00 9,9 8,6 - - 4 2 - - SW 1025,9 20 0 0,0
20.04.2019 21:00:00 10,4 8,6 - - 5 3 - - WSW 1026,5 45 0 0,0
20.04.2019 20:00:00 10,6 8,7 - - 11 6 - - SSW 1027,0 50 0 0,0
20.04.2019 19:00:00 11,4 8,7 - - 13 7 - - SSW 1027,5 50 0 0,0
20.04.2019 18:00:00 11,1 8,7 - - 18 10 - - SSW 1027,9 50 0 0,0
20.04.2019 17:00:00 11,2 8,7 - - 21 11 - - SSW 1028,3 45 0 0,0
20.04.2019 16:00:00 11,1 8,7 - - 24 13 - - S 1028,4 45 0 0,0
20.04.2019 15:00:00 12,0 9,0 - - 22 12 - - SSW 1028,9 45 0 0,0
20.04.2019 14:00:00 12,5 8,9 - - 24 13 - - S 1029,3 45 0 0,0
20.04.2019 13:00:00 14,1 8,7 - - 28 15 - - SW 1029,4 45 6 0,0
20.04.2019 12:00:00 13,0 9,0 - - 22 12 - - SW 1029,5 65 6 0,0
20.04.2019 11:00:00 11,5 8,5 - - 24 13 - - SSW 1029,3 60 18 0,0
20.04.2019 10:00:00 11,7 8,8 9,2 7,7 26 14 - - S 1028,8 55 42 0,0
20.04.2019 09:00:00 10,9 9,0 - - 29 16 - - SSW 1028,8 75 24 0,0
20.04.2019 08:00:00 10,6 9,0 - - 24 13 - - SSW 1028,5 75 0 0,0
20.04.2019 07:00:00 10,0 8,9 - - 22 12 - - S 1028,4 70 0 0,0
20.04.2019 06:00:00 10,1 8,9 - - 22 12 - - SSW 1028,1 75 0 0,0
20.04.2019 05:00:00 10,2 9,0 - - 22 12 - - SSW 1028,1 70 0 0,0
20.04.2019 04:00:00 10,0 9,1 - - 26 14 - - SSW 1027,9 26 0 0,0
20.04.2019 03:00:00 10,1 9,1 - - 24 13 - - SSW 1027,8 30 0 0,0
20.04.2019 02:00:00 10,4 9,1 - - 26 14 - - SW 1027,2 40 0 0,0
20.04.2019 01:00:00 10,3 8,9 - - 28 15 - - SSW 1027,1 14 - 0,0
20.04.2019 00:00:00 10,9 8,9 - - 28 15 - - SSW 1026,8 11 0 0,0
19.04.2019 23:00:00 10,0 8,2 - - 24 13 - - S 1027,0 7 0 0,0
19.04.2019 22:00:00 11,6 8,2 - - 18 10 - - S 1026,8 10 0 0,0
19.04.2019 21:00:00 13,0 7,8 - - 28 15 50 27 SSW 1026,7 12 0 0,0
19.04.2019 20:00:00 14,7 7,5 - - 29 16 - - SSW 1026,1 17 6 0,0
19.04.2019 19:00:00 15,9 8,5 - - 21 11 - - SSW 1026,1 16 18 0,0
19.04.2019 18:00:00 15,1 8,3 - - 26 14 - - S 1026,3 16 12 0,0
19.04.2019 17:00:00 15,3 8,2 - - 28 15 - - SSW 1026,2 16 42 0,0
19.04.2019 16:00:00 15,3 8,4 - - 21 11 - - S 1026,5 14 54 0,0
19.04.2019 15:00:00 14,7 8,4 - - 21 11 - - S 1026,8 14 60 0,0
19.04.2019 14:00:00 14,9 7,7 - - 21 11 - - S 1027,0 24 60 0,0
19.04.2019 13:00:00 14,6 7,0 - - 24 13 - - S 1027,0 27 60 0,0

tt = temperature
td = dewpoint
tt -20cm = temperature -20cm
tt -100cm = temperature -100cm
ff = wind speed
fx = gusts
dd = wind direction
ppp = reduced air pressure
vv = visibility
sd = sunshine duration
rr = precipitation

Next stations